When you browse on this site, cookies collect data to enhance your experience and personalize the content and advertising you see.
Visit our Privacy Policy to learn more. By continuing to use the site, you agree to this use of cookies and data.
  • In United Kingdom
  • List of Countries
  • For 7 days
  • Water Temperature
  • Weather Map
  • Weather Widgets
  • user-avatar
    Login

    Hourly Weather Sarbogard

    Today, 13 December, Friday

    Time Temperature Precipitation Wind Pressure Humidity
    00:00 +3°C° 0.2 mm 2 mps 741 mmHg 94%
    01:00 +3°C° 0.2 mm 2 mps 741 mmHg 94%
    02:00 +3°C° 0.2 mm 2 mps 740 mmHg 94%
    03:00 +3°C° 0.2 mm 2 mps 740 mmHg 93%
    04:00 +2°C° 0.2 mm 3 mps 739 mmHg 93%
    05:00 +1°C° 0 mm 3 mps 738 mmHg 93%
    06:00 +1°C° 0 mm 3 mps 738 mmHg 94%
    07:00 0°C° 0 mm 3 mps 738 mmHg 95%
    08:00 0°C° 0 mm 4 mps 737 mmHg 93%
    09:00 +1°C° 0 mm 4 mps 736 mmHg 90%
    10:00 +1°C° 0 mm 5 mps 736 mmHg 87%
    11:00 +2°C° 0 mm 5 mps 735 mmHg 82%
    12:00 +3°C° 0 mm 5 mps 735 mmHg 76%
    13:00 +5°C° 0 mm 5 mps 734 mmHg 70%
    14:00 +5°C° 0 mm 5 mps 734 mmHg 72%
    15:00 +5°C° 0 mm 5 mps 733 mmHg 74%
    16:00 +4°C° 0 mm 4 mps 733 mmHg 77%
    17:00 +4°C° 0 mm 4 mps 733 mmHg 78%
    18:00 +4°C° 0 mm 3 mps 733 mmHg 80%
    19:00 +5°C° 0 mm 2 mps 733 mmHg 81%
    20:00 +4°C° 0.1 mm 3 mps 733 mmHg 83%
    21:00 +4°C° 0.1 mm 3 mps 733 mmHg 84%
    22:00 +4°C° 0.1 mm 4 mps 733 mmHg 85%
    23:00 +4°C° 0.2 mm 4 mps 734 mmHg 87%

    Tomorrow, 14 December, Saturday

    Time Temperature Precipitation Wind Pressure Humidity
    00:00 +4°C° 0.2 mm 4 mps 735 mmHg 89%
    01:00 +3°C° 0.2 mm 5 mps 735 mmHg 90%
    02:00 +3°C° 0 mm 5 mps 736 mmHg 90%
    03:00 +3°C° 0 mm 5 mps 736 mmHg 90%
    04:00 +3°C° 0 mm 5 mps 736 mmHg 89%
    05:00 +3°C° 0.4 mm 6 mps 737 mmHg 89%
    06:00 +2°C° 0.4 mm 6 mps 738 mmHg 89%
    07:00 +2°C° 0.4 mm 6 mps 739 mmHg 89%
    08:00 +3°C° 0.2 mm 6 mps 740 mmHg 87%
    09:00 +3°C° 0.2 mm 6 mps 741 mmHg 85%
    10:00 +3°C° 0.2 mm 6 mps 742 mmHg 82%
    11:00 +5°C° 0 mm 4 mps 742 mmHg 77%
    12:00 +5°C° 0 mm 3 mps 743 mmHg 72%
    13:00 +8°C° 0 mm 1 mps 743 mmHg 67%
    14:00 +8°C° 0 mm 1 mps 744 mmHg 70%
    15:00 +7°C° 0 mm 1 mps 744 mmHg 72%
    16:00 +6°C° 0 mm 1 mps 745 mmHg 74%
    17:00 +6°C° 0 mm 1 mps 746 mmHg 77%
    18:00 +5°C° 0 mm 2 mps 747 mmHg 80%
    19:00 +4°C° 0 mm 2 mps 747 mmHg 82%
    20:00 +3°C° 0 mm 3 mps 748 mmHg 84%
    21:00 +3°C° 0 mm 3 mps 749 mmHg 86%
    22:00 +2°C° 0 mm 3 mps 750 mmHg 88%
    23:00 +3°C° 0 mm 3 mps 750 mmHg 88%

    Day after tomorrow, 15 December, Sunday

    Time Temperature Precipitation Wind Pressure Humidity
    00:00 +3°C° 0 mm 3 mps 750 mmHg 88%
    01:00 +3°C° 0 mm 4 mps 751 mmHg 88%
    02:00 +2°C° 0 mm 3 mps 751 mmHg 89%
    03:00 +2°C° 0 mm 3 mps 751 mmHg 89%
    04:00 +3°C° 0 mm 2 mps 751 mmHg 90%
    05:00 +3°C° 0 mm 2 mps 751 mmHg 90%
    06:00 +3°C° 0 mm 2 mps 751 mmHg 91%
    07:00 +3°C° 0 mm 2 mps 751 mmHg 91%
    08:00 +3°C° 0 mm 2 mps 751 mmHg 88%
    09:00 +4°C° 0 mm 2 mps 752 mmHg 85%
    10:00 +4°C° 0 mm 3 mps 752 mmHg 82%
    11:00 +5°C° 0 mm 3 mps 752 mmHg 79%
    12:00 +7°C° 0 mm 3 mps 752 mmHg 75%
    13:00 +8°C° 0 mm 3 mps 752 mmHg 71%
    14:00 +8°C° 0 mm 3 mps 752 mmHg 74%
    15:00 +7°C° 0 mm 2 mps 753 mmHg 77%
    16:00 +6°C° 0 mm 2 mps 753 mmHg 80%
    17:00 +6°C° 0 mm 2 mps 753 mmHg 81%
    18:00 +6°C° 0 mm 2 mps 753 mmHg 82%
    19:00 +6°C° 0 mm 1 mps 754 mmHg 83%
    20:00 +6°C° 0 mm 1 mps 754 mmHg 84%
    21:00 +4°C° 0 mm 2 mps 754 mmHg 86%
    22:00 +4°C° 0 mm 2 mps 755 mmHg 88%
    23:00 +4°C° 0 mm 2 mps 755 mmHg 88%

    16 December, Monday

    Time Temperature Precipitation Wind Pressure Humidity
    00:00 +4°C° 0 mm 2 mps 755 mmHg 89%
    01:00 +4°C° 0 mm 2 mps 755 mmHg 89%
    02:00 +4°C° 0 mm 2 mps 755 mmHg 89%
    03:00 +4°C° 0 mm 2 mps 755 mmHg 90%
    04:00 +4°C° 0 mm 2 mps 755 mmHg 90%
    05:00 +4°C° 0 mm 2 mps 755 mmHg 88%
    06:00 +4°C° 0 mm 2 mps 755 mmHg 86%
    07:00 +4°C° 0 mm 2 mps 755 mmHg 85%
    08:00 +6°C° 0 mm 2 mps 755 mmHg 79%
    09:00 +7°C° 0 mm 3 mps 756 mmHg 72%
    10:00 +8°C° 0 mm 3 mps 756 mmHg 66%
    11:00 +9°C° 0 mm 3 mps 755 mmHg 63%
    12:00 +10°C° 0 mm 4 mps 755 mmHg 60%
    13:00 +12°C° 0 mm 4 mps 755 mmHg 57%
    14:00 +11°C° 0 mm 4 mps 754 mmHg 61%
    15:00 +10°C° 0 mm 4 mps 754 mmHg 65%
    16:00 +8°C° 0 mm 4 mps 754 mmHg 69%
    17:00 +7°C° 0 mm 4 mps 754 mmHg 69%
    18:00 +7°C° 0 mm 5 mps 754 mmHg 68%
    19:00 +7°C° 0 mm 5 mps 754 mmHg 67%
    20:00 +7°C° 0 mm 5 mps 754 mmHg 68%
    21:00 +7°C° 0 mm 5 mps 754 mmHg 69%
    22:00 +7°C° 0 mm 5 mps 754 mmHg 70%
    23:00 +7°C° 0 mm 5 mps 753 mmHg 72%

    17 December, Tuesday

    Time Temperature Precipitation Wind Pressure Humidity
    00:00 +7°C° 0 mm 5 mps 753 mmHg 73%
    01:00 +7°C° 0 mm 5 mps 753 mmHg 75%
    02:00 +7°C° 0 mm 6 mps 753 mmHg 76%
    03:00 +7°C° 0 mm 6 mps 753 mmHg 77%
    04:00 +7°C° 0 mm 6 mps 753 mmHg 78%
    05:00 +7°C° 0 mm 6 mps 753 mmHg 79%
    06:00 +7°C° 0 mm 6 mps 753 mmHg 80%
    07:00 +8°C° 0 mm 7 mps 753 mmHg 81%
    08:00 +9°C° 0 mm 7 mps 754 mmHg 78%
    09:00 +10°C° 0 mm 7 mps 754 mmHg 75%
    10:00 +10°C° 0 mm 7 mps 754 mmHg 73%
    11:00 +11°C° 0 mm 7 mps 754 mmHg 70%
    12:00 +12°C° 0 mm 7 mps 754 mmHg 68%
    13:00 +13°C° 0 mm 8 mps 753 mmHg 65%
    14:00 +12°C° 0 mm 7 mps 753 mmHg 68%
    15:00 +12°C° 0 mm 7 mps 753 mmHg 71%
    16:00 +11°C° 0 mm 6 mps 753 mmHg 75%
    17:00 +11°C° 0 mm 6 mps 754 mmHg 76%
    18:00 +10°C° 0 mm 5 mps 754 mmHg 78%
    19:00 +10°C° 0 mm 5 mps 754 mmHg 80%
    20:00 +10°C° 0 mm 5 mps 754 mmHg 81%
    21:00 +10°C° 0 mm 5 mps 755 mmHg 82%
    22:00 +10°C° 0 mm 5 mps 755 mmHg 83%
    23:00 +10°C° 0 mm 5 mps 755 mmHg 84%

    18 December, Wednesday

    Time Temperature Precipitation Wind Pressure Humidity
    00:00 +9°C° 0 mm 5 mps 755 mmHg 85%
    01:00 +10°C° 0 mm 4 mps 755 mmHg 86%
    02:00 +10°C° 0 mm 4 mps 755 mmHg 87%
    03:00 +10°C° 0 mm 4 mps 756 mmHg 87%
    04:00 +8°C° 0 mm 4 mps 756 mmHg 88%
    05:00 +9°C° 0 mm 3 mps 756 mmHg 89%
    06:00 +9°C° 0 mm 3 mps 756 mmHg 89%
    07:00 +9°C° 0 mm 3 mps 756 mmHg 90%
    08:00 +9°C° 0 mm 3 mps 757 mmHg 87%
    09:00 +10°C° 0 mm 3 mps 757 mmHg 84%
    10:00 +11°C° 0 mm 3 mps 758 mmHg 81%
    11:00 +12°C° 0 mm 3 mps 758 mmHg 79%
    12:00 +13°C° 0 mm 3 mps 758 mmHg 76%
    13:00 +14°C° 0 mm 2 mps 758 mmHg 74%
    14:00 +13°C° 0 mm 2 mps 758 mmHg 78%
    15:00 +12°C° 0 mm 1 mps 758 mmHg 82%
    16:00 +11°C° 0 mm 1 mps 758 mmHg 86%
    17:00 +11°C° 0 mm 1 mps 758 mmHg 88%
    18:00 +10°C° 0 mm 1 mps 758 mmHg 90%
    19:00 +10°C° 0 mm 1 mps 758 mmHg 91%
    20:00 +10°C° 0 mm 1 mps 758 mmHg 92%
    21:00 +9°C° 0 mm 1 mps 759 mmHg 93%
    22:00 +9°C° 0 mm 1 mps 759 mmHg 94%
    23:00 +8°C° 0 mm 2 mps 759 mmHg 95%
    Show more